New Bern, NC

4:32 PM EDT on October 19, 2019 (GMT -0400)
Craven County Regional

Weather History for KEWN - August, 2019

Change the Weather History Date:

Sunday, August 18, 2019

  Actual Average Record
Temperature  
Mean Temperature 82 °F 79 °F  
Max Temperature 90 °F 88 °F 101 °F (1988)
Min Temperature 73 °F 70 °F 58 °F (1979)
Degree Days  
Heating Degree Days 0 0  
Month to date heating degree days 0 0  
Since 1 June heating degree days 0 1  
Since 1 July heating degree days 0 0  
Cooling Degree Days 16 14  
Month to date cooling degree days 286 265  
Year to date cooling degree days 1605 1355  
Since 1 June cooling degree days 1186 1112  
Growing Degree Days 32 (Base 50)    
Moisture  
Dew Point 76 °F    
Average Humidity 93    
Maximum Humidity 100    
Minimum Humidity 66    
Precipitation  
Precipitation 0.29 in 0.22 in 3.56 in (2014)
Month to date precipitation 5.50 3.97  
Year to date precipitation 28.44 34.12  
Snow  
Snow 0.00 in - - ()
Month to date snowfall 0.0  
Since 1 July snowfall 0.0  
Snow Depth 0.00 in    
Sea Level Pressure  
Sea Level Pressure 30.01 in    
Wind  
Wind Speed 3 mph ()    
Max Wind Speed 16 mph    
Max Gust Speed 24 mph    
Visibility 8.7 miles    
Events Rain , Thunderstorm    
T = Trace of Precipitation, MM = Missing Value Source: Averaged Metar Reports

Daily Weather History Graph

Daily Weather History Graph

Search for Another Location

Airport or City:

Astronomy

Aug. 18, 2019 Rise Set
Actual Time 6:30 AM EDT 7:53 PM EDT
Civil Twilight 6:03 AM EDT 8:19 PM EDT
Nautical Twilight 5:31 AM EDT 8:51 PM EDT
Astronomical Twilight 4:58 AM EDT 9:24 PM EDT
Moon 9:53 PM EDT (8/18) 9:08 AM EDT (8/18)
Length of Visible Light 14h 16m
Length of Day
13h 23m
Waning Gibbous, 91% of the Moon is Illuminated
Aug 18
Waning Gibbous
Aug 23
Last Quarter
Aug 30
New
Sep 5
First Quarter
Sep 14
Full

Hourly Weather History & Observations

Time (EDT) Temp. Heat Index Dew Point Humidity Pressure Visibility Wind Dir Wind Speed Gust Speed Precip Events Conditions
12:42 AM 75.0 °F - 75.0 °F 100% 30.03 in 10.0 mi Calm Calm - N/A   Mostly Cloudy
12:54 AM 75.9 °F - 75.9 °F 100% 30.03 in 10.0 mi NNE 3.5 mph - N/A   Mostly Cloudy
1:01 AM 75.9 °F - 75.9 °F 100% 30.03 in 10.0 mi ENE 3.5 mph - N/A   Scattered Clouds
1:51 AM 75.2 °F - 75.2 °F 100% 30.01 in 10.0 mi NE 4.6 mph - N/A   Mostly Cloudy
1:54 AM 75.0 °F - 75.0 °F 100% 30.01 in 10.0 mi NNE 4.6 mph - N/A   Mostly Cloudy
2:38 AM 75.0 °F - 75.0 °F 100% 30.00 in 10.0 mi Calm Calm - N/A   Mostly Cloudy
2:46 AM 75.0 °F - 75.0 °F 100% 30.00 in 10.0 mi Calm Calm - N/A   Mostly Cloudy
2:54 AM 75.0 °F - 75.0 °F 100% 30.01 in 8.0 mi Calm Calm - N/A   Mostly Cloudy
3:04 AM 75.0 °F - 75.0 °F 100% 30.00 in 1.8 mi Calm Calm - N/A Rain , Thunderstorm Heavy Thunderstorms and Rain
3:10 AM 75.0 °F - 75.0 °F 100% 30.00 in 3.0 mi West 3.5 mph - N/A Rain , Thunderstorm Light Thunderstorms and Rain
3:19 AM 75.0 °F - 75.0 °F 100% 30.00 in 10.0 mi Calm Calm - N/A   Overcast
3:34 AM 75.0 °F - 75.0 °F 100% 29.99 in 10.0 mi Calm Calm - N/A   Mostly Cloudy
3:54 AM 75.0 °F - 75.0 °F 100% 30.00 in 10.0 mi East 3.5 mph - N/A Rain Light Rain
4:19 AM 75.0 °F - 75.0 °F 100% 29.98 in 9.0 mi Calm Calm - 0.00 in Rain Light Rain
4:44 AM 75.9 °F - 75.9 °F 100% 29.98 in 3.0 mi SSE 8.1 mph - 0.03 in Rain Heavy Rain
4:49 AM 75.2 °F - 75.2 °F 100% 29.98 in 1.8 mi South 12.7 mph 24.2 mph 0.14 in Rain Heavy Rain
4:54 AM 75.9 °F - 75.0 °F 97% 29.98 in 1.5 mi SSW 6.9 mph 24.2 mph 0.24 in Rain Heavy Rain
4:59 AM 75.9 °F - 75.9 °F 100% 29.97 in 2.0 mi South 4.6 mph - 0.04 in Rain Heavy Rain
5:09 AM 75.9 °F - 75.9 °F 100% 29.97 in 5.0 mi South 3.5 mph - 0.05 in Rain Rain
5:44 AM 75.0 °F - 75.0 °F 100% 29.98 in 8.0 mi SSW 10.4 mph - 0.05 in Rain Rain
5:54 AM 73.9 °F - 73.9 °F 100% 29.98 in 5.0 mi South 8.1 mph - 0.05 in Rain Rain
6:54 AM 73.0 °F - 73.0 °F 100% 29.98 in 10.0 mi Calm Calm - N/A   Clear
7:18 AM 73.0 °F - 73.0 °F 100% 29.99 in 10.0 mi Calm Calm - N/A Thunderstorm Clear
7:33 AM 73.0 °F - 73.0 °F 100% 30.00 in 10.0 mi Calm Calm - N/A   Partly Cloudy
7:54 AM 73.9 °F - 73.9 °F 100% 29.99 in 10.0 mi NNW 3.5 mph - N/A   Clear
8:37 AM 75.0 °F - 75.0 °F 100% 30.01 in 10.0 mi SSW 3.5 mph - N/A   Mostly Cloudy
8:46 AM 75.0 °F - 75.0 °F 100% 30.02 in 10.0 mi Calm Calm - N/A   Mostly Cloudy
8:54 AM 75.0 °F - 75.0 °F 100% 30.02 in 10.0 mi Calm Calm - N/A   Mostly Cloudy
9:23 AM 77.0 °F - 75.0 °F 94% 30.01 in 10.0 mi WNW 4.6 mph - N/A   Partly Cloudy
9:54 AM 77.0 °F - 73.9 °F 90% 30.02 in 10.0 mi WNW 4.6 mph - N/A   Overcast
10:09 AM 77.0 °F - 75.0 °F 94% 30.02 in 10.0 mi West 4.6 mph - N/A   Overcast
10:20 AM 78.1 °F - 75.0 °F 90% 30.03 in 10.0 mi West 4.6 mph - N/A   Overcast
10:54 AM 78.1 °F - 75.9 °F 93% 30.04 in 10.0 mi West 3.5 mph - N/A   Overcast
11:08 AM 79.0 °F - 75.9 °F 90% 30.03 in 10.0 mi West 4.6 mph - N/A   Overcast
11:54 AM 82.0 °F 90.2 °F 77.0 °F 85% 30.04 in 10.0 mi West 5.8 mph - N/A   Overcast
12:18 PM 84.0 °F 93.7 °F 77.0 °F 79% 30.04 in 10.0 mi Calm Calm - N/A   Mostly Cloudy
12:54 PM 84.0 °F 92.6 °F 75.9 °F 76% 30.04 in 10.0 mi WNW 5.8 mph - N/A   Scattered Clouds
1:54 PM 84.0 °F 92.6 °F 75.9 °F 76% 30.04 in 10.0 mi North 4.6 mph - N/A   Mostly Cloudy
2:32 PM 84.9 °F 95.3 °F 77.0 °F 77% 30.03 in 10.0 mi NW 4.6 mph - N/A   Mostly Cloudy
2:52 PM 87.8 °F 97.6 °F 75.2 °F 66% 30.02 in 10.0 mi Variable 3.5 mph - N/A   Scattered Clouds
2:54 PM 88.0 °F 98.5 °F 75.9 °F 67% 30.02 in 10.0 mi NW 4.6 mph - N/A   Scattered Clouds
3:54 PM 87.1 °F 97.3 °F 75.9 °F 69% 30.01 in 10.0 mi Calm Calm - N/A   Scattered Clouds
4:54 PM 89.1 °F 101.4 °F 77.0 °F 67% 29.99 in 10.0 mi West 4.6 mph - N/A   Clear
5:54 PM 89.1 °F 101.4 °F 77.0 °F 67% 29.98 in 10.0 mi West 3.5 mph - N/A   Clear
6:54 PM 84.9 °F 96.6 °F 78.1 °F 80% 29.98 in 10.0 mi WSW 3.5 mph - N/A   Scattered Clouds
7:54 PM 82.9 °F 91.8 °F 77.0 °F 82% 29.99 in 10.0 mi Calm Calm - N/A   Mostly Cloudy
8:54 PM 81.0 °F 88.6 °F 78.1 °F 91% 30.00 in 10.0 mi South 8.1 mph - N/A   Scattered Clouds
9:54 PM 79.0 °F - 78.1 °F 97% 30.03 in 10.0 mi SSW 6.9 mph - N/A   Partly Cloudy
10:54 PM 78.1 °F - 78.1 °F 100% 30.04 in 10.0 mi SW 4.6 mph - N/A   Clear
11:54 PM 77.0 °F - 77.0 °F 100% 30.04 in 8.0 mi SW 4.6 mph - N/A   Clear